Satellite: RAX-2 Catalog number: 37853 Epoch time: 12235.90162591 Element set: 0265 Inclination: 101.7092 deg RA of node: 306.4737 deg Eccentricity: 0.0246008 Arg of perigee: 160.6939 deg Mean anomaly: 200.3791 deg Mean motion: 14.80427444 rev/day Decay rate: 3.179e-05 rev/day^2 Epoch rev: 04427 Checksum: 297
Satellite: AUBIESAT Catalog number: 37854 Epoch time: 12235.90593738 Element set: 0265 Inclination: 101.7103 deg RA of node: 306.8214 deg Eccentricity: 0.0247095 Arg of perigee: 159.9049 deg Mean anomaly: 201.2096 deg Mean motion: 14.80857057 rev/day Decay rate: 3.818e-05 rev/day^2 Epoch rev: 04426 Checksum: 307
Satellite: HRBE Catalog number: 37855 Epoch time: 12236.87258340 Element set: 262 Inclination: 101.7121 deg RA of node: 308.1609 deg Eccentricity: 0.0247515 Arg of perigee: 157.3294 deg Mean anomaly: 203.9055 deg Mean motion: 14.80693995 rev/day Decay rate: 3.458e-05 rev/day^2 Epoch rev: 4440 Checksum: 302
Satellite: RS-39 Catalog number: 38051 Epoch time: 12236.75833906 Element set: 635 Inclination: 051.6400 deg RA of node: 197.6055 deg Eccentricity: 0.0012444 Arg of perigee: 282.5553 deg Mean anomaly: 150.3155 deg Mean motion: 15.25303814 rev/day Decay rate: 5.254e-05 rev/day^2 Epoch rev: 3228 Checksum: 284
Satellite: E-STAR Catalog number: 38079 Epoch time: 12236.87083318 Element set: 447 Inclination: 069.4842 deg RA of node: 160.5306 deg Eccentricity: 0.0726057 Arg of perigee: 162.4489 deg Mean anomaly: 200.3350 deg Mean motion: 14.18748955 rev/day Decay rate: 2.4307e-04 rev/day^2 Epoch rev: 2717 Checksum: 315
Satellite: GOLIAT Catalog number: 38085 Epoch time: 12236.76963504 Element set: 417 Inclination: 069.4860 deg RA of node: 161.2695 deg Eccentricity: 0.0732153 Arg of perigee: 162.9033 deg Mean anomaly: 199.8216 deg Mean motion: 14.17679282 rev/day Decay rate: 2.2622e-04 rev/day^2 Epoch rev: 2714 Checksum: 316
Satellite: HORYU-2 Catalog number: 38340 Epoch time: 12236.34806745 Element set: 105 Inclination: 098.1782 deg RA of node: 176.2431 deg Eccentricity: 0.0013891 Arg of perigee: 115.8245 deg Mean anomaly: 244.4474 deg Mean motion: 14.70104122 rev/day Decay rate: 9.33e-06 rev/day^2 Epoch rev: 1434 Checksum: 272
Satellite: RS-40 Catalog number: 38736 Epoch time: 12235.56880548 Element set: 0029 Inclination: 082.4819 deg RA of node: 341.3085 deg Eccentricity: 0.0017679 Arg of perigee: 258.4196 deg Mean anomaly: 101.4898 deg Mean motion: 12.42645990 rev/day Decay rate: 1.0e-07 rev/day^2 Epoch rev: 00315 Checksum: 314
/EX